| time (UTC) | temp F | wind direction | speed MPH | gust MPH | rain 1hr in | rain 24hr in | rain mn in | humidity % | barometer mb |
| 20260502223125 | 68 | 8 | 1.0 | 2.0 | 0.00 | 0.00 | 0.00 | 25 | 1016.4 |
| 20260502222622 | 66 | 353 | 3.0 | 3.0 | 0.00 | 0.00 | 0.00 | 26 | 1016.8 |
| 20260502222119 | 65 | 270 | 3.0 | 3.0 | 0.00 | 0.00 | 0.00 | 28 | 1016.6 |
| 20260502221614 | 65 | 289 | 7.0 | 8.0 | 0.00 | 0.00 | 0.00 | 29 | 1016.7 |
| 20260502221112 | 66 | 290 | 9.0 | 9.0 | 0.00 | 0.00 | 0.00 | 29 | 1016.6 |
| 20260502220608 | 66 | 273 | 6.0 | 7.0 | 0.00 | 0.00 | 0.00 | 29 | 1016.6 |
| 20260502220104 | 65 | 316 | 6.0 | 7.0 | 0.00 | 0.00 | 0.00 | 28 | 1016.7 |
| 20260502215602 | 66 | 310 | 8.0 | 9.0 | 0.00 | 0.00 | 0.00 | 27 | 1016.7 |
| 20260502215058 | 66 | 349 | 3.0 | 3.0 | 0.00 | 0.00 | 0.00 | 30 | 1016.9 |
| 20260502214555 | 66 | 41 | 1.0 | 1.0 | 0.00 | 0.00 | 0.00 | 28 | 1017.1 |
| 20260502214053 | 66 | 325 | 5.0 | 6.0 | 0.00 | 0.00 | 0.00 | 29 | 1017.4 |
| 20260502213549 | 66 | 271 | 6.0 | 7.0 | 0.00 | 0.00 | 0.00 | 27 | 1016.9 |
| 20260502213047 | 66 | 274 | 7.0 | 8.0 | 0.00 | 0.00 | 0.00 | 28 | 1017.3 |
| 20260502212546 | 65 | 302 | 3.0 | 3.0 | 0.00 | 0.00 | 0.00 | 31 | 1017.4 |
| 20260502212043 | 66 | 13 | 4.0 | 6.0 | 0.00 | 0.00 | 0.00 | 29 | 1017.2 |
| 20260502211538 | 65 | 35 | 3.0 | 3.0 | 0.00 | 0.00 | 0.00 | 30 | 1016.9 |
| 20260502211036 | 65 | 298 | 4.0 | 5.0 | 0.00 | 0.00 | 0.00 | 29 | 1017.3 |
| 20260502210533 | 67 | 269 | 11.0 | 13.0 | 0.00 | 0.00 | 0.00 | 30 | 1017.3 |
| 20260502210030 | 66 | 330 | 3.0 | 3.0 | 0.00 | 0.00 | 0.00 | 30 | 1017.5 |
| 20260502205526 | 64 | 293 | 9.0 | 11.0 | 0.00 | 0.00 | 0.00 | 32 | 1017.3 |
| 20260502205024 | 65 | 263 | 7.0 | 9.0 | 0.00 | 0.00 | 0.00 | 29 | 1017.6 |
| 20260502204521 | 66 | 297 | 9.0 | 10.0 | 0.00 | 0.00 | 0.00 | 30 | 1017.5 |
| 20260502204018 | 65 | 265 | 7.0 | 9.0 | 0.00 | 0.00 | 0.00 | 32 | 1017.5 |
| 20260502203515 | 65 | 107 | 4.0 | 5.0 | 0.00 | 0.00 | 0.00 | 31 | 1017.8 |
| 20260502203012 | 65 | 160 | 2.0 | 2.0 | 0.00 | 0.00 | 0.00 | 34 | 1017.7 |
| 20260502202508 | 64 | 268 | 6.0 | 7.0 | 0.00 | 0.00 | 0.00 | 33 | 1017.6 |
| 20260502202007 | 64 | 189 | 3.0 | 3.0 | 0.00 | 0.00 | 0.00 | 32 | 1017.7 |
| 20260502201502 | 64 | 74 | 1.0 | 1.0 | 0.00 | 0.00 | 0.00 | 33 | 1017.8 |
| 20260502200959 | 63 | 67 | 4.0 | 5.0 | 0.00 | 0.00 | 0.00 | 34 | 1017.6 |
| 20260502200455 | 64 | 31 | 3.0 | 3.0 | 0.00 | 0.00 | 0.00 | 35 | 1017.9 |
| 20260502195953 | 64 | 44 | 1.0 | 1.0 | 0.00 | 0.00 | 0.00 | 34 | 1017.7 |
| 20260502195450 | 63 | 15 | 5.0 | 7.0 | 0.00 | 0.00 | 0.00 | 36 | 1017.7 |
| 20260502194946 | 64 | 323 | 3.0 | 3.0 | 0.00 | 0.00 | 0.00 | 37 | 1017.9 |
| 20260502194443 | 64 | 343 | 3.0 | 3.0 | 0.00 | 0.00 | 0.00 | 35 | 1017.9 |
| 20260502193938 | 64 | 1 | 3.0 | 5.0 | 0.00 | 0.00 | 0.00 | 35 | 1018.1 |
| 20260502193436 | 64 | 239 | 2.0 | 2.0 | 0.00 | 0.00 | 0.00 | 33 | 1018.2 |
| 20260502192932 | 65 | 228 | 3.0 | 5.0 | 0.00 | 0.00 | 0.00 | 36 | 1018.2 |
| 20260502192429 | 64 | 199 | 5.0 | 6.0 | 0.00 | 0.00 | 0.00 | 35 | 1018.3 |
| 20260502191925 | 64 | 237 | 2.0 | 2.0 | 0.00 | 0.00 | 0.00 | 37 | 1018.2 |
| 20260502191423 | 64 | 27 | 3.0 | 5.0 | 0.00 | 0.00 | 0.00 | 40 | 1018.4 |
| 20260502190921 | 63 | 59 | 4.0 | 7.0 | 0.00 | 0.00 | 0.00 | 37 | 1018.4 |
| 20260502190418 | 62 | 85 | 3.0 | 5.0 | 0.00 | 0.00 | 0.00 | 38 | 1018.4 |
| 20260502185914 | 63 | 226 | 0.0 | 0.0 | 0.00 | 0.00 | 0.00 | 35 | 1018.3 |
| 20260502185409 | 62 | 220 | 2.0 | 2.0 | 0.00 | 0.00 | 0.00 | 37 | 1018.6 |
| 20260502184907 | 62 | 28 | 0.0 | 1.0 | 0.00 | 0.00 | 0.00 | 36 | 1018.8 |
| 20260502184402 | 62 | 159 | 4.0 | 5.0 | 0.00 | 0.00 | 0.00 | 38 | 1018.7 |
| 20260502183859 | 62 | 229 | 3.0 | 5.0 | 0.00 | 0.00 | 0.00 | 37 | 1018.7 |
| 20260502183355 | 62 | 220 | 4.0 | 6.0 | 0.00 | 0.00 | 0.00 | 38 | 1018.7 |
| 20260502182850 | 62 | 93 | 2.0 | 2.0 | 0.00 | 0.00 | 0.00 | 39 | 1018.9 |
| 20260502182346 | 61 | 163 | 3.0 | 6.0 | 0.00 | 0.00 | 0.00 | 38 | 1018.7 |
| 20260502181843 | 61 | 74 | 5.0 | 7.0 | 0.00 | 0.00 | 0.00 | 38 | 1018.8 |
| 20260502181342 | 60 | 204 | 4.0 | 5.0 | 0.00 | 0.00 | 0.00 | 37 | 1018.9 |
| 20260502180839 | 61 | 272 | 0.0 | 1.0 | 0.00 | 0.00 | 0.00 | 40 | 1019.1 |
| 20260502180336 | 60 | 254 | 4.0 | 6.0 | 0.00 | 0.00 | 0.00 | 41 | 1019.2 |
| 20260502170255 | 57 | 228 | 4.0 | 5.0 | 0.00 | 0.00 | 0.00 | 43 | 1019.4 |
| 20260502164242 | 57 | 231 | 5.0 | 6.0 | 0.00 | 0.00 | 0.00 | 46 | 1019.5 |
| 20260502163738 | 57 | 257 | 4.0 | 5.0 | 0.00 | 0.00 | 0.00 | 45 | 1019.4 |
| 20260502163235 | 57 | 251 | 7.0 | 8.0 | 0.00 | 0.00 | 0.00 | 46 | 1019.4 |
| 20260502162732 | 57 | 294 | 3.0 | 3.0 | 0.00 | 0.00 | 0.00 | 49 | 1019.3 |
| 20260502162229 | 56 | 233 | 4.0 | 5.0 | 0.00 | 0.00 | 0.00 | 46 | 1019.3 |
| 20260502161726 | 56 | 198 | 4.0 | 6.0 | 0.00 | 0.00 | 0.00 | 47 | 1019.5 |
| 20260502161222 | 56 | 222 | 7.0 | 9.0 | 0.00 | 0.00 | 0.00 | 47 | 1019.5 |
| 20260502160720 | 55 | 254 | 5.0 | 6.0 | 0.00 | 0.00 | 0.00 | 48 | 1019.4 |
| 20260502160219 | 55 | 254 | 10.0 | 13.0 | 0.00 | 0.00 | 0.00 | 47 | 1019.4 |
| 20260502152132 | 53 | 241 | 5.0 | 6.0 | 0.00 | 0.00 | 0.00 | 47 | 1019.4 |
| 20260502151630 | 53 | 259 | 8.0 | 9.0 | 0.00 | 0.00 | 0.00 | 48 | 1019.5 |
| 20260502151127 | 53 | 211 | 5.0 | 7.0 | 0.00 | 0.00 | 0.00 | 49 | 1019.6 |
| 20260502150624 | 53 | 192 | 7.0 | 8.0 | 0.00 | 0.00 | 0.00 | 48 | 1019.7 |
| 20260502150120 | 53 | 236 | 4.0 | 6.0 | 0.00 | 0.00 | 0.00 | 48 | 1019.5 |
| 20260502130509 | 45 | 160 | 6.0 | 7.0 | 0.00 | 0.00 | 0.00 | 51 | 1019.2 |
| 20260502123451 | 47 | 225 | 6.0 | 8.0 | 0.00 | 0.00 | 0.00 | 49 | 1018.5 |
| 20260502122948 | 47 | 226 | 4.0 | 6.0 | 0.00 | 0.00 | 0.00 | 47 | 1018.5 |
| 20260502122445 | 47 | 244 | 5.0 | 6.0 | 0.00 | 0.00 | 0.00 | 46 | 1018.6 |
| 20260502121943 | 47 | 234 | 3.0 | 5.0 | 0.00 | 0.00 | 0.00 | 46 | 1018.4 |
| 20260502121440 | 47 | 217 | 1.0 | 1.0 | 0.00 | 0.00 | 0.00 | 45 | 1018.4 |
| 20260502120937 | 47 | 260 | 2.0 | 2.0 | 0.00 | 0.00 | 0.00 | 45 | 1018.4 |
| 20260502120433 | 47 | 253 | 2.0 | 2.0 | 0.00 | 0.00 | 0.00 | 42 | 1018.5 |
| 20260502115931 | 48 | 215 | 2.0 | 2.0 | 0.00 | 0.00 | 0.00 | 41 | 1018.3 |
| 20260502115428 | 47 | 143 | 0.0 | 0.0 | 0.00 | 0.00 | 0.00 | 41 | 1018.2 |
| 20260502114924 | 46 | 106 | 3.0 | 3.0 | 0.00 | 0.00 | 0.00 | 43 | 1017.8 |
| 20260502114421 | 46 | 73 | 3.0 | 3.0 | 0.00 | 0.00 | 0.00 | 44 | 1017.9 |
| 20260502113918 | 46 | 95 | 3.0 | 3.0 | 0.00 | 0.00 | 0.00 | 45 | 1017.8 |
| 20260502113416 | 48 | 220 | 1.0 | 1.0 | 0.00 | 0.00 | 0.00 | 43 | 1017.8 |
| 20260502112914 | 47 | 189 | 5.0 | 6.0 | 0.00 | 0.00 | 0.00 | 39 | 1017.4 |
| 20260502112411 | 46 | 74 | 2.0 | 2.0 | 0.00 | 0.00 | 0.00 | 45 | 1017.2 |
| 20260502111909 | 47 | 220 | 1.0 | 1.0 | 0.00 | 0.00 | 0.00 | 45 | 1017.5 |
| 20260502111406 | 46 | 158 | 4.0 | 6.0 | 0.00 | 0.00 | 0.00 | 43 | 1017.2 |
| 20260502110903 | 49 | 254 | 3.0 | 3.0 | 0.00 | 0.00 | 0.00 | 47 | 1017.3 |
| 20260502110401 | 48 | 162 | 4.0 | 5.0 | 0.00 | 0.00 | 0.00 | 40 | 1016.9 |
| 20260502105858 | 45 | 67 | 2.0 | 2.0 | 0.00 | 0.00 | 0.00 | 47 | 1017.2 |
| 20260502105355 | 45 | 36 | 2.0 | 2.0 | 0.00 | 0.00 | 0.00 | 47 | 1017.1 |
| 20260502104853 | 42 | 120 | 1.0 | 1.0 | 0.00 | 0.00 | 0.00 | 48 | 1017.1 |
| 20260502104350 | 44 | 98 | 1.0 | 2.0 | 0.00 | 0.00 | 0.00 | 50 | 1017.2 |
| 20260502103847 | 53 | 54 | 1.0 | 2.0 | 0.00 | 0.00 | 0.00 | 37 | 1017.1 |
| 20260502103344 | 52 | 166 | 4.0 | 6.0 | 0.00 | 0.00 | 0.00 | 32 | 1016.7 |
| 20260502102841 | 49 | 187 | 3.0 | 3.0 | 0.00 | 0.00 | 0.00 | 36 | 1016.8 |
| 20260502102338 | 47 | 205 | 0.0 | 0.0 | 0.00 | 0.00 | 0.00 | 41 | 1016.8 |
| 20260502101835 | 47 | 199 | 1.0 | 1.0 | 0.00 | 0.00 | 0.00 | 40 | 1017.2 |
| 20260502101334 | 47 | 200 | 1.0 | 2.0 | 0.00 | 0.00 | 0.00 | 42 | 1016.9 |
| 20260502100832 | 47 | 45 | 1.0 | 1.0 | 0.00 | 0.00 | 0.00 | 42 | 1016.9 |
| 20260502100331 | 45 | 80 | 2.0 | 2.0 | 0.00 | 0.00 | 0.00 | 45 | 1016.8 |
| 20260502091304 | 51 | 148 | 10.0 | 13.0 | 0.00 | 0.00 | 0.00 | 34 | 1016.4 |
| 20260502090802 | 52 | 142 | 11.0 | 11.0 | 0.00 | 0.00 | 0.00 | 35 | 1016.2 |
| 20260502090258 | 52 | 148 | 12.0 | 13.0 | 0.00 | 0.00 | 0.00 | 35 | 1015.9 |
| 20260502071158 | 54 | 133 | 8.0 | 10.0 | 0.00 | 0.00 | 0.00 | 30 | 1016.2 |
| 20260502070657 | 56 | 137 | 8.0 | 9.0 | 0.00 | 0.00 | 0.00 | 29 | 1016.1 |
| 20260502070155 | 55 | 144 | 8.0 | 9.0 | 0.00 | 0.00 | 0.00 | 30 | 1016.2 |
| 20260502065653 | 54 | 148 | 7.0 | 7.0 | 0.00 | 0.00 | 0.00 | 31 | 1016.1 |
| 20260502065150 | 56 | 160 | 7.0 | 8.0 | 0.00 | 0.00 | 0.00 | 31 | 1016.2 |
| 20260502064649 | 55 | 131 | 8.0 | 9.0 | 0.00 | 0.00 | 0.00 | 28 | 1016.1 |
| 20260502064145 | 53 | 144 | 9.0 | 10.0 | 0.00 | 0.00 | 0.00 | 33 | 1016.2 |
| 20260502063643 | 55 | 154 | 6.0 | 7.0 | 0.00 | 0.00 | 0.00 | 31 | 1016.2 |
| 20260502063141 | 54 | 169 | 7.0 | 8.0 | 0.00 | 0.00 | 0.00 | 30 | 1016.2 |
| 20260502062637 | 55 | 144 | 8.0 | 8.0 | 0.00 | 0.00 | 0.00 | 31 | 1016.2 |
| 20260502062135 | 55 | 157 | 7.0 | 8.0 | 0.00 | 0.00 | 0.00 | 32 | 1016.1 |
| 20260502061633 | 55 | 183 | 7.0 | 7.0 | 0.00 | 0.00 | 0.00 | 31 | 1016.1 |
| 20260502061131 | 55 | 162 | 7.0 | 8.0 | 0.00 | 0.00 | 0.00 | 32 | 1016.1 |
| 20260502060630 | 55 | 163 | 6.0 | 8.0 | 0.00 | 0.00 | 0.00 | 31 | 1016.1 |
| 20260502060127 | 56 | 158 | 7.0 | 8.0 | 0.00 | 0.00 | 0.00 | 29 | 1015.9 |
| 20260502055625 | 57 | 175 | 5.0 | 6.0 | 0.00 | 0.00 | 0.00 | 28 | 1015.9 |
| 20260502055123 | 57 | 222 | 5.0 | 6.0 | 0.00 | 0.00 | 0.00 | 27 | 1016.2 |
| 20260502054622 | 59 | 219 | 4.0 | 5.0 | 0.00 | 0.00 | 0.00 | 27 | 1015.7 |
| 20260502054119 | 58 | 193 | 5.0 | 7.0 | 0.00 | 0.00 | 0.00 | 26 | 1015.9 |
| 20260502053616 | 59 | 227 | 5.0 | 7.0 | 0.00 | 0.00 | 0.00 | 26 | 1015.9 |
| 20260502053113 | 59 | 189 | 7.0 | 9.0 | 0.00 | 0.00 | 0.00 | 25 | 1016.2 |
| 20260502052612 | 59 | 207 | 8.0 | 10.0 | 0.00 | 0.00 | 0.00 | 25 | 1015.9 |
| 20260502052110 | 59 | 232 | 7.0 | 10.0 | 0.00 | 0.00 | 0.00 | 27 | 1015.7 |
| 20260502051607 | 59 | 180 | 8.0 | 9.0 | 0.00 | 0.00 | 0.00 | 26 | 1015.9 |
| 20260502051105 | 59 | 210 | 8.0 | 9.0 | 0.00 | 0.00 | 0.00 | 27 | 1015.8 |
| 20260502050601 | 58 | 198 | 6.0 | 8.0 | 0.00 | 0.00 | 0.00 | 28 | 1015.7 |
| 20260502050058 | 57 | 134 | 11.0 | 13.0 | 0.00 | 0.00 | 0.00 | 34 | 1015.7 |
| 20260502045554 | 57 | 126 | 14.0 | 16.0 | 0.00 | 0.00 | 0.00 | 33 | 1015.5 |
| 20260502045052 | 57 | 130 | 15.0 | 17.0 | 0.00 | 0.00 | 0.00 | 33 | 1015.6 |
| 20260502044548 | 57 | 129 | 14.0 | 16.0 | 0.00 | 0.00 | 0.00 | 33 | 1015.5 |
| 20260502044044 | 59 | 126 | 13.0 | 14.0 | 0.00 | 0.00 | 0.00 | 30 | 1015.5 |
| 20260502043542 | 59 | 129 | 16.0 | 17.0 | 0.00 | 0.00 | 0.00 | 30 | 1015.4 |
| 20260502043038 | 60 | 117 | 15.0 | 16.0 | 0.00 | 0.00 | 0.00 | 28 | 1015.3 |
| 20260502042533 | 61 | 127 | 14.0 | 15.0 | 0.00 | 0.00 | 0.00 | 27 | 1015.6 |
| 20260502042031 | 62 | 125 | 13.0 | 14.0 | 0.00 | 0.00 | 0.00 | 25 | 1015.4 |
| 20260502041529 | 62 | 132 | 13.0 | 14.0 | 0.00 | 0.00 | 0.00 | 24 | 1015.3 |
| 20260502041026 | 62 | 146 | 11.0 | 11.0 | 0.00 | 0.00 | 0.00 | 24 | 1015.3 |
| 20260502040522 | 62 | 119 | 11.0 | 13.0 | 0.00 | 0.00 | 0.00 | 25 | 1015.3 |
| 20260502040020 | 62 | 155 | 10.0 | 11.0 | 0.00 | 0.00 | 0.00 | 25 | 1015.4 |
| 20260502035515 | 62 | 140 | 10.0 | 10.0 | 0.00 | 0.00 | 0.00 | 27 | 1015.3 |
| 20260502035013 | 60 | 146 | 9.0 | 10.0 | 0.00 | 0.00 | 0.00 | 27 | 1015.1 |
| 20260502034511 | 62 | 141 | 9.0 | 10.0 | 0.00 | 0.00 | 0.00 | 24 | 1015.1 |
| 20260502034009 | 62 | 133 | 8.0 | 9.0 | 0.00 | 0.00 | 0.00 | 25 | 1015.2 |
| 20260502033507 | 63 | 145 | 9.0 | 10.0 | 0.00 | 0.00 | 0.00 | 24 | 1015.1 |
| 20260502033004 | 62 | 136 | 8.0 | 8.0 | 0.00 | 0.00 | 0.00 | 26 | 1014.9 |
| 20260502032459 | 63 | 134 | 7.0 | 7.0 | 0.00 | 0.00 | 0.00 | 25 | 1015.3 |
| 20260502031956 | 63 | 130 | 8.0 | 8.0 | 0.00 | 0.00 | 0.00 | 25 | 1014.9 |
| 20260502031455 | 63 | 131 | 9.0 | 9.0 | 0.00 | 0.00 | 0.00 | 24 | 1014.8 |
| 20260502030953 | 62 | 132 | 8.0 | 9.0 | 0.00 | 0.00 | 0.00 | 25 | 1014.9 |
| 20260502030451 | 64 | 135 | 7.0 | 8.0 | 0.00 | 0.00 | 0.00 | 27 | 1014.8 |
| 20260502025948 | 64 | 117 | 8.0 | 9.0 | 0.00 | 0.00 | 0.00 | 24 | 1014.7 |
| 20260502025445 | 62 | 131 | 9.0 | 10.0 | 0.00 | 0.00 | 0.00 | 27 | 1014.8 |
| 20260502024943 | 61 | 147 | 7.0 | 7.0 | 0.00 | 0.00 | 0.00 | 30 | 1014.7 |
| 20260502024441 | 62 | 150 | 7.0 | 7.0 | 0.00 | 0.00 | 0.00 | 28 | 1014.8 |
| 20260502023939 | 62 | 148 | 7.0 | 7.0 | 0.00 | 0.00 | 0.00 | 28 | 1014.5 |
| 20260502023436 | 62 | 152 | 6.0 | 7.0 | 0.00 | 0.00 | 0.00 | 28 | 1014.7 |
| 20260502022933 | 62 | 125 | 6.0 | 8.0 | 0.00 | 0.00 | 0.00 | 28 | 1014.8 |
| 20260502022429 | 63 | 148 | 6.0 | 6.0 | 0.00 | 0.00 | 0.00 | 30 | 1014.7 |
| 20260502021927 | 63 | 155 | 6.0 | 6.0 | 0.00 | 0.00 | 0.00 | 29 | 1014.8 |
| 20260502021424 | 64 | 144 | 6.0 | 6.0 | 0.00 | 0.00 | 0.00 | 27 | 1014.7 |
| 20260502020921 | 65 | 153 | 6.0 | 6.0 | 0.00 | 0.00 | 0.00 | 25 | 1014.8 |
| 20260502020419 | 66 | 154 | 6.0 | 6.0 | 0.00 | 0.00 | 0.00 | 26 | 1014.7 |
| 20260502015915 | 66 | 144 | 5.0 | 6.0 | 0.00 | 0.00 | 0.00 | 27 | 1014.7 |
| 20260502015413 | 67 | 144 | 5.0 | 6.0 | 0.00 | 0.00 | 0.00 | 26 | 1014.7 |
| 20260502014910 | 68 | 163 | 4.0 | 5.0 | 0.00 | 0.00 | 0.00 | 23 | 1014.8 |
| 20260502014406 | 68 | 159 | 5.0 | 5.0 | 0.00 | 0.00 | 0.00 | 24 | 1014.5 |
| 20260502013903 | 68 | 137 | 3.0 | 3.0 | 0.00 | 0.00 | 0.00 | 22 | 1014.7 |
| 20260502013358 | 69 | 135 | 4.0 | 5.0 | 0.00 | 0.00 | 0.00 | 22 | 1014.8 |
| 20260502012855 | 69 | 160 | 3.0 | 3.0 | 0.00 | 0.00 | 0.00 | 22 | 1014.8 |
| 20260502012353 | 69 | 158 | 4.0 | 5.0 | 0.00 | 0.00 | 0.00 | 21 | 1015.1 |
| 20260502011850 | 70 | 172 | 3.0 | 5.0 | 0.00 | 0.00 | 0.00 | 20 | 1015.1 |
| 20260502011346 | 70 | 207 | 4.0 | 5.0 | 0.00 | 0.00 | 0.00 | 19 | 1015.1 |
| 20260502010843 | 70 | 234 | 2.0 | 2.0 | 0.00 | 0.00 | 0.00 | 20 | 1015.2 |
| 20260502010340 | 71 | 230 | 3.0 | 3.0 | 0.00 | 0.00 | 0.00 | 20 | 1014.8 |
| 20260502005837 | 71 | 248 | 5.0 | 7.0 | 0.00 | 0.00 | 0.00 | 18 | 1014.8 |
| 20260502005335 | 71 | 161 | 7.0 | 8.0 | 0.00 | 0.00 | 0.00 | 17 | 1014.8 |
| 20260502004832 | 71 | 161 | 5.0 | 6.0 | 0.00 | 0.00 | 0.00 | 17 | 1014.9 |
| 20260502004327 | 72 | 216 | 4.0 | 6.0 | 0.00 | 0.00 | 0.00 | 16 | 1015.3 |
| 20260502003826 | 72 | 228 | 6.0 | 7.0 | 0.00 | 0.00 | 0.00 | 17 | 1015.2 |
| 20260502003323 | 72 | 228 | 5.0 | 7.0 | 0.00 | 0.00 | 0.00 | 15 | 1015.4 |
| 20260502002819 | 71 | 241 | 5.0 | 6.0 | 0.00 | 0.00 | 0.00 | 15 | 1014.9 |
| 20260502002316 | 72 | 249 | 9.0 | 10.0 | 0.00 | 0.00 | 0.00 | 15 | 1015.5 |
| 20260502001813 | 72 | 224 | 4.0 | 5.0 | 0.00 | 0.00 | 0.00 | 15 | 1015.3 |
| 20260502001311 | 72 | 248 | 6.0 | 7.0 | 0.00 | 0.00 | 0.00 | 15 | 1015.2 |
| 20260502000808 | 73 | 248 | 10.0 | 13.0 | 0.00 | 0.00 | 0.00 | 14 | 1015.3 |
| 20260502000306 | 71 | 217 | 3.0 | 3.0 | 0.00 | 0.00 | 0.00 | 17 | 1015.2 |
| 20260501235802 | 71 | 173 | 7.0 | 8.0 | 0.00 | 0.00 | 0.00 | 14 | 1015.4 |
| 20260501235258 | 72 | 201 | 7.0 | 9.0 | 0.00 | 0.00 | 0.00 | 16 | 1015.5 |
| 20260501234753 | 72 | 237 | 7.0 | 8.0 | 0.00 | 0.00 | 0.00 | 16 | 1015.2 |
| 20260501234251 | 72 | 207 | 7.0 | 9.0 | 0.00 | 0.00 | 0.00 | 16 | 1015.5 |
| 20260501233749 | 72 | 230 | 7.0 | 8.0 | 0.00 | 0.00 | 0.00 | 15 | 1015.6 |
| 20260501233246 | 72 | 269 | 8.0 | 8.0 | 0.00 | 0.00 | 0.00 | 16 | 1015.4 |
| 20260501232742 | 72 | 269 | 5.0 | 7.0 | 0.00 | 0.00 | 0.00 | 17 | 1015.5 |
| 20260501232239 | 72 | 219 | 2.0 | 2.0 | 0.00 | 0.00 | 0.00 | 18 | 1015.5 |
| 20260501231737 | 71 | 261 | 6.0 | 7.0 | 0.00 | 0.00 | 0.00 | 18 | 1015.3 |
| 20260501231235 | 71 | 237 | 8.0 | 8.0 | 0.00 | 0.00 | 0.00 | 16 | 1015.6 |
| 20260501230733 | 72 | 245 | 9.0 | 9.0 | 0.00 | 0.00 | 0.00 | 16 | 1015.5 |
| 20260501230231 | 72 | 228 | 7.0 | 7.0 | 0.00 | 0.00 | 0.00 | 16 | 1015.8 |
| 20260501225723 | 72 | 163 | 8.0 | 10.0 | 0.00 | 0.00 | 0.00 | 17 | 1015.6 |
| 20260501225220 | 72 | 158 | 7.0 | 8.0 | 0.00 | 0.00 | 0.00 | 15 | 1015.7 |
| 20260501224716 | 72 | 256 | 9.0 | 10.0 | 0.00 | 0.00 | 0.00 | 18 | 1015.7 |
| 20260501224214 | 71 | 198 | 3.0 | 5.0 | 0.00 | 0.00 | 0.00 | 18 | 1015.8 |
| 20260501223709 | 71 | 270 | 4.0 | 5.0 | 0.00 | 0.00 | 0.00 | 16 | 1016.1 |